LQSAT
1 40958U 15057A   18184.87574089 +.00000009 +00000-0 +91135-5 0  9997
2 40958 097.9394 257.6485 0016891 284.9997 074.9326 14.73036628147316
CHUBUSAT 2
1 41338U 16012B   18184.48418026 +.00000207 +00000-0 +93403-5 0  9997
2 41338 031.0020 210.1064 0013856 234.7857 125.1481 14.99992773130286
CHUBUSAT 3
1 41339U 16012C   18184.49590046 +.00000299 +00000-0 +16523-4 0  9990
2 41339 031.0101 208.6034 0013627 242.9673 116.9570 15.00180195130275
OUFTI-1
1 41458U 16025C   18184.93001886 +.00001764 +00000-0 +94720-4 0  9997
2 41458 098.1344 248.6729 0170746 091.6800 270.3976 15.04737176119961
E-STAR-2
1 41459U 16025D   18184.74037960 +.00000807 +00000-0 +45962-4 0  9990
2 41459 098.1344 248.3074 0172040 092.9609 269.1289 15.04457809119912
AAUSAT 4
1 41460U 16025E   18184.83595121  .00001813  00000-0  96458-4 0  9994
2 41460  98.1290 248.9337 0163290  88.5496 273.4374 15.05931266119990
NUSAT 1
1 41557U 16033B   18184.87128597 +.00000834 +00000-0 +33128-
1 41783U 16059A   18184.82614579  .00000012  00000-0  11726-4 0  9992
2 41783  98.1162 246.1163 0034527  45.2588 315.1415 14.62930103 94392
ALSAT 1N
1 41789U 16059G   18184.90616511 +.00000089 +00000-0 +25967-4 0  9991
2 41789 098.1178 247.4514 0029152 037.3096 323.0113 14.64163824094464
NAYIF 1
1 42017U 17008BX  18184.83413243 +.00000865 +00000-0 +38132-4 0  9990
2 42017 097.4470 249.7923 0005454 335.8190 024.2791 15.24498727076603
LILACSAT-1
1 42725U 98067ME  18184.85334555 +.00013934 +00000-0 +11728-3 0  9992
2 42725 051.6352 273.0504 0004671 305.5075 054.5487 15.70162135063135
MAX VALIER SAT
1 42778U 17036P   18185.15036880  .00000566  00000-0  28323-4 0  9998
2 42778  97.4020 244.5811 0013021  18.5064 341.6643 15.21348796 57081
